| time (UTC) | temp C | wind direction | speed KPH | gust KPH | rain 1hr cm | rain 24hr cm | rain mn cm | humidity % | barometer mb |
| 20260508213133 | 28 | 202 | 12.9 | 20.9 | 0.00 | 0.00 | 0.00 | 29 | 1017.2 |
| 20260508212633 | 28 | 229 | 12.9 | 20.9 | 0.00 | 0.00 | 0.00 | 31 | 1017.3 |
| 20260508212132 | 28 | 219 | 12.9 | 20.9 | 0.00 | 0.00 | 0.00 | 29 | 1017.3 |
| 20260508211633 | 28 | 250 | 3.2 | 20.9 | 0.00 | 0.00 | 0.00 | 29 | 1017.3 |
| 20260508211132 | 28 | 232 | 11.3 | 20.9 | 0.00 | 0.00 | 0.00 | 33 | 1017.5 |
| 20260508210632 | 28 | 211 | 6.4 | 16.1 | 0.00 | 0.00 | 0.00 | 33 | 1017.4 |
| 20260508205632 | 28 | 229 | 4.8 | 22.5 | 0.00 | 0.00 | 0.00 | 33 | 1017.4 |
| 20260508205132 | 28 | 355 | 3.2 | 22.5 | 0.00 | 0.00 | 0.00 | 32 | 1017.5 |
| 20260508204632 | 28 | 214 | 9.7 | 22.5 | 0.00 | 0.00 | 0.00 | 33 | 1017.4 |
| 20260508203632 | 28 | 195 | 12.9 | 19.3 | 0.00 | 0.00 | 0.00 | 34 | 1017.6 |
| 20260508203132 | 28 | 235 | 11.3 | 19.3 | 0.00 | 0.00 | 0.00 | 32 | 1017.3 |
| 20260508202632 | 28 | 172 | 4.8 | 17.7 | 0.00 | 0.00 | 0.00 | 35 | 1017.5 |
| 20260508202132 | 28 | 215 | 11.3 | 17.7 | 0.00 | 0.00 | 0.00 | 36 | 1017.6 |
| 20260508201632 | 27 | 217 | 3.2 | 17.7 | 0.00 | 0.00 | 0.00 | 34 | 1017.3 |
| 20260508201132 | 28 | 249 | 6.4 | 14.5 | 0.00 | 0.00 | 0.00 | 34 | 1017.6 |
| 20260508200632 | 27 | 265 | 9.7 | 14.5 | 0.00 | 0.00 | 0.00 | 36 | 1017.4 |
| 20260508200132 | 27 | 212 | 6.4 | 17.7 | 0.00 | 0.00 | 0.00 | 34 | 1017.3 |
| 20260508195632 | 28 | 248 | 12.9 | 20.9 | 0.00 | 0.00 | 0.00 | 35 | 1017.7 |
| 20260508195132 | 28 | 262 | 17.7 | 20.9 | 0.00 | 0.00 | 0.00 | 35 | 1017.6 |
| 20260508194632 | 28 | 235 | 9.7 | 19.3 | 0.00 | 0.00 | 0.00 | 33 | 1017.6 |
| 20260508193632 | 27 | 245 | 11.3 | 20.9 | 0.00 | 0.00 | 0.00 | 38 | 1018.0 |
| 20260508192631 | 27 | 217 | 8.0 | 16.1 | 0.00 | 0.00 | 0.00 | 36 | 1017.9 |
| 20260508192132 | 27 | 255 | 14.5 | 19.3 | 0.00 | 0.00 | 0.00 | 38 | 1018.0 |
| 20260508191631 | 27 | 218 | 11.3 | 24.1 | 0.00 | 0.00 | 0.00 | 38 | 1018.0 |
| 20260508191132 | 27 | 252 | 16.1 | 24.1 | 0.00 | 0.00 | 0.00 | 39 | 1018.0 |
| 20260508190631 | 27 | 253 | 8.0 | 19.3 | 0.00 | 0.00 | 0.00 | 38 | 1018.1 |
| 20260508190131 | 28 | 250 | 12.9 | 20.9 | 0.00 | 0.00 | 0.00 | 36 | 1018.1 |
| 20260508185631 | 28 | 232 | 16.1 | 20.9 | 0.00 | 0.00 | 0.00 | 33 | 1018.0 |
| 20260508185131 | 28 | 250 | 3.2 | 19.3 | 0.00 | 0.00 | 0.00 | 32 | 1018.1 |
| 20260508184631 | 28 | 271 | 12.9 | 20.9 | 0.00 | 0.00 | 0.00 | 32 | 1018.1 |
| 20260508184131 | 27 | 260 | 3.2 | 20.9 | 0.00 | 0.00 | 0.00 | 31 | 1018.2 |
| 20260508183631 | 27 | 225 | 4.8 | 22.5 | 0.00 | 0.00 | 0.00 | 29 | 1018.0 |
| 20260508183131 | 28 | 244 | 14.5 | 22.5 | 0.00 | 0.00 | 0.00 | 30 | 1018.1 |
| 20260508182631 | 28 | 198 | 12.9 | 19.3 | 0.00 | 0.00 | 0.00 | 29 | 1017.9 |
| 20260508182131 | 28 | 231 | 9.7 | 19.3 | 0.00 | 0.00 | 0.00 | 29 | 1018.0 |
| 20260508181631 | 28 | 231 | 8.0 | 17.7 | 0.00 | 0.00 | 0.00 | 30 | 1018.1 |
| 20260508181130 | 27 | 263 | 11.3 | 22.5 | 0.00 | 0.00 | 0.00 | 30 | 1018.1 |
| 20260508180631 | 27 | 265 | 16.1 | 22.5 | 0.00 | 0.00 | 0.00 | 29 | 1018.1 |
| 20260508180131 | 27 | 233 | 4.8 | 20.9 | 0.00 | 0.00 | 0.00 | 31 | 1018.0 |
| 20260508175631 | 27 | 212 | 8.0 | 19.3 | 0.00 | 0.00 | 0.00 | 27 | 1018.2 |
| 20260508175130 | 27 | 211 | 3.2 | 19.3 | 0.00 | 0.00 | 0.00 | 29 | 1018.0 |
| 20260508174631 | 27 | 196 | 11.3 | 17.7 | 0.00 | 0.00 | 0.00 | 28 | 1018.3 |
| 20260508174130 | 27 | 267 | 4.8 | 20.9 | 0.00 | 0.00 | 0.00 | 29 | 1018.3 |
| 20260508173630 | 27 | 235 | 6.4 | 20.9 | 0.00 | 0.00 | 0.00 | 30 | 1018.0 |
| 20260508173130 | 27 | 218 | 8.0 | 16.1 | 0.00 | 0.00 | 0.00 | 30 | 1018.3 |
| 20260508172631 | 27 | 223 | 6.4 | 19.3 | 0.00 | 0.00 | 0.00 | 32 | 1018.3 |
| 20260508171130 | 27 | 248 | 6.4 | 17.7 | 0.00 | 0.00 | 0.00 | 30 | 1017.9 |
| 20260508170630 | 26 | 269 | 1.6 | 20.9 | 0.00 | 0.00 | 0.00 | 36 | 1018.0 |
| 20260508170130 | 26 | 248 | 8.0 | 20.9 | 0.00 | 0.00 | 0.00 | 30 | 1017.6 |
| 20260508165629 | 26 | 215 | 3.2 | 14.5 | 0.00 | 0.00 | 0.00 | 39 | 1018.0 |
| 20260508165129 | 25 | 253 | 11.3 | 14.5 | 0.00 | 0.00 | 0.00 | 43 | 1017.8 |
| 20260508164630 | 25 | 227 | 6.4 | 14.5 | 0.00 | 0.00 | 0.00 | 44 | 1017.7 |
| 20260508164130 | 25 | 237 | 0.0 | 12.9 | 0.00 | 0.00 | 0.00 | 42 | 1017.6 |
| 20260508163129 | 24 | 210 | 3.2 | 12.9 | 0.00 | 0.00 | 0.00 | 44 | 1017.4 |
| 20260508162629 | 23 | 250 | 4.8 | 12.9 | 0.00 | 0.00 | 0.00 | 46 | 1017.4 |
| 20260508162129 | 23 | 217 | 1.6 | 12.9 | 0.00 | 0.00 | 0.00 | 45 | 1017.5 |
| 20260508161629 | 23 | 219 | 4.8 | 12.9 | 0.00 | 0.00 | 0.00 | 47 | 1017.2 |
| 20260508161129 | 23 | 240 | 8.0 | 8.0 | 0.00 | 0.00 | 0.00 | 46 | 1017.3 |
| 20260508160629 | 22 | 244 | 4.8 | 9.7 | 0.00 | 0.00 | 0.00 | 50 | 1017.3 |
| 20260508160129 | 22 | 225 | 3.2 | 9.7 | 0.00 | 0.00 | 0.00 | 51 | 1017.1 |
| 20260508155629 | 22 | 204 | 0.0 | 8.0 | 0.00 | 0.00 | 0.00 | 49 | 1017.2 |
| 20260508155129 | 21 | 198 | 3.2 | 8.0 | 0.00 | 0.00 | 0.00 | 50 | 1017.2 |
| 20260508154629 | 21 | 199 | 1.6 | 6.4 | 0.00 | 0.00 | 0.00 | 52 | 1017.0 |
| 20260508154129 | 21 | 221 | 0.0 | 8.0 | 0.00 | 0.00 | 0.00 | 53 | 1017.0 |
| 20260508153628 | 20 | 227 | 1.6 | 8.0 | 0.00 | 0.00 | 0.00 | 54 | 1017.0 |
| 20260508152629 | 19 | 236 | 3.2 | 11.3 | 0.00 | 0.00 | 0.00 | 54 | 1016.8 |
| 20260508152128 | 18 | 228 | 0.0 | 4.8 | 0.00 | 0.00 | 0.00 | 57 | 1016.7 |
| 20260508151628 | 18 | 237 | 0.0 | 4.8 | 0.00 | 0.00 | 0.00 | 59 | 1016.6 |
| 20260508151129 | 18 | 239 | 0.0 | 4.8 | 0.00 | 0.00 | 0.00 | 61 | 1016.6 |
| 20260508150629 | 17 | 240 | 3.2 | 3.2 | 0.00 | 0.00 | 0.00 | 61 | 1016.5 |
| 20260508150128 | 17 | 242 | 0.0 | 3.2 | 0.00 | 0.00 | 0.00 | 62 | 1016.3 |
| 20260508145628 | 17 | 242 | 0.0 | 6.4 | 0.00 | 0.00 | 0.00 | 63 | 1016.8 |
| 20260508145128 | 16 | 242 | 1.6 | 6.4 | 0.00 | 0.00 | 0.00 | 64 | 1016.8 |
| 20260508144628 | 16 | 286 | 0.0 | 0.0 | 0.00 | 0.00 | 0.00 | 72 | 1016.5 |
| 20260508144129 | 15 | 58 | 0.0 | 0.0 | 0.00 | 0.00 | 0.00 | 71 | 1016.5 |
| 20260508143629 | 15 | 59 | 0.0 | 4.8 | 0.00 | 0.00 | 0.00 | 75 | 1016.3 |
| 20260508143128 | 15 | 58 | 0.0 | 6.4 | 0.00 | 0.00 | 0.00 | 74 | 1016.2 |
| 20260508142628 | 14 | 61 | 3.2 | 6.4 | 0.00 | 0.00 | 0.00 | 75 | 1016.2 |
| 20260508142132 | 13 | 35 | 4.8 | 8.0 | 0.00 | 0.00 | 0.00 | 78 | 1015.9 |
| 20260508141628 | 13 | 51 | 3.2 | 9.7 | 0.00 | 0.00 | 0.00 | 78 | 1015.9 |
| 20260508141128 | 12 | 73 | 8.0 | 9.7 | 0.00 | 0.00 | 0.00 | 79 | 1015.8 |
| 20260508140628 | 12 | 69 | 6.4 | 9.7 | 0.00 | 0.00 | 0.00 | 80 | 1015.8 |
| 20260508140128 | 11 | 29 | 4.8 | 9.7 | 0.00 | 0.00 | 0.00 | 81 | 1015.5 |
| 20260508134628 | 10 | 78 | 6.4 | 12.9 | 0.00 | 0.00 | 0.00 | 83 | 1015.8 |
| 20260508134127 | 9 | 53 | 8.0 | 12.9 | 0.00 | 0.00 | 0.00 | 83 | 1015.7 |
| 20260508133628 | 9 | 62 | 8.0 | 11.3 | 0.00 | 0.00 | 0.00 | 83 | 1015.6 |
| 20260508133128 | 8 | 44 | 6.4 | 12.9 | 0.00 | 0.00 | 0.00 | 83 | 1015.6 |
| 20260508132627 | 8 | 55 | 6.4 | 12.9 | 0.00 | 0.00 | 0.00 | 83 | 1015.7 |
| 20260508132129 | 8 | 24 | 8.0 | 12.9 | 0.00 | 0.00 | 0.00 | 82 | 1015.5 |
| 20260508131627 | 8 | 57 | 8.0 | 11.3 | 0.00 | 0.00 | 0.00 | 82 | 1015.6 |
| 20260508131127 | 8 | 44 | 6.4 | 11.3 | 0.00 | 0.00 | 0.00 | 82 | 1015.5 |
| 20260508130627 | 8 | 67 | 9.7 | 11.3 | 0.00 | 0.00 | 0.00 | 81 | 1015.5 |
| 20260508130128 | 8 | 47 | 6.4 | 12.9 | 0.00 | 0.00 | 0.00 | 81 | 1015.5 |
| 20260508125629 | 8 | 57 | 11.3 | 12.9 | 0.00 | 0.00 | 0.00 | 81 | 1015.8 |
| 20260508124627 | 8 | 51 | 8.0 | 12.9 | 0.00 | 0.00 | 0.00 | 80 | 1015.8 |
| 20260508124127 | 8 | 41 | 8.0 | 12.9 | 0.00 | 0.00 | 0.00 | 80 | 1015.8 |
| 20260508123627 | 8 | 69 | 9.7 | 12.9 | 0.00 | 0.00 | 0.00 | 80 | 1015.8 |
| 20260508123127 | 8 | 75 | 11.3 | 12.9 | 0.00 | 0.00 | 0.00 | 80 | 1015.8 |
| 20260508122627 | 8 | 57 | 6.4 | 14.5 | 0.00 | 0.00 | 0.00 | 80 | 1015.9 |
| 20260508122127 | 8 | 78 | 8.0 | 14.5 | 0.00 | 0.00 | 0.00 | 80 | 1015.8 |
| 20260508121627 | 8 | 70 | 9.7 | 12.9 | 0.00 | 0.00 | 0.00 | 80 | 1015.7 |
| 20260508121127 | 8 | 62 | 8.0 | 12.9 | 0.00 | 0.00 | 0.00 | 79 | 1015.7 |
| 20260508120627 | 8 | 64 | 12.9 | 12.9 | 0.00 | 0.00 | 0.00 | 79 | 1015.8 |
| 20260508120127 | 8 | 36 | 8.0 | 9.7 | 0.00 | 0.00 | 0.00 | 79 | 1015.7 |
| 20260508115626 | 8 | 52 | 8.0 | 11.3 | 0.00 | 0.00 | 0.00 | 79 | 1016.2 |
| 20260508114626 | 8 | 44 | 8.0 | 9.7 | 0.00 | 0.00 | 0.00 | 79 | 1016.2 |
| 20260508114127 | 8 | 40 | 8.0 | 9.7 | 0.00 | 0.00 | 0.00 | 78 | 1016.2 |
| 20260508113627 | 8 | 46 | 8.0 | 11.3 | 0.00 | 0.00 | 0.00 | 79 | 1016.2 |
| 20260508113127 | 8 | 45 | 6.4 | 11.3 | 0.00 | 0.00 | 0.00 | 79 | 1016.1 |
| 20260508112626 | 8 | 51 | 8.0 | 9.7 | 0.00 | 0.00 | 0.00 | 79 | 1016.1 |
| 20260508112126 | 8 | 38 | 8.0 | 11.3 | 0.00 | 0.00 | 0.00 | 79 | 1016.0 |
| 20260508111634 | 8 | 33 | 8.0 | 11.3 | 0.00 | 0.00 | 0.00 | 79 | 1016.1 |
| 20260508111126 | 8 | 73 | 6.4 | 11.3 | 0.00 | 0.00 | 0.00 | 79 | 1016.0 |
| 20260508110626 | 8 | 43 | 6.4 | 12.9 | 0.00 | 0.00 | 0.00 | 80 | 1016.1 |
| 20260508110126 | 8 | 32 | 8.0 | 12.9 | 0.00 | 0.00 | 0.00 | 80 | 1016.2 |
| 20260508105626 | 8 | 51 | 6.4 | 11.3 | 0.00 | 0.00 | 0.00 | 80 | 1016.6 |
| 20260508105126 | 8 | 45 | 6.4 | 11.3 | 0.00 | 0.00 | 0.00 | 80 | 1016.7 |
| 20260508104626 | 8 | 53 | 8.0 | 12.9 | 0.00 | 0.00 | 0.00 | 80 | 1016.7 |
| 20260508104126 | 8 | 51 | 6.4 | 12.9 | 0.00 | 0.00 | 0.00 | 80 | 1016.7 |
| 20260508103626 | 8 | 40 | 8.0 | 9.7 | 0.00 | 0.00 | 0.00 | 80 | 1016.8 |
| 20260508103126 | 8 | 28 | 8.0 | 9.7 | 0.00 | 0.00 | 0.00 | 80 | 1016.9 |
| 20260508102626 | 8 | 50 | 8.0 | 9.7 | 0.00 | 0.00 | 0.00 | 80 | 1016.9 |
| 20260508101625 | 9 | 49 | 8.0 | 11.3 | 0.00 | 0.00 | 0.00 | 80 | 1017.0 |
| 20260508101126 | 9 | 52 | 8.0 | 11.3 | 0.00 | 0.00 | 0.00 | 80 | 1016.9 |
| 20260508100626 | 9 | 79 | 6.4 | 12.9 | 0.00 | 0.00 | 0.00 | 80 | 1016.9 |
| 20260508100125 | 9 | 74 | 4.8 | 12.9 | 0.00 | 0.00 | 0.00 | 79 | 1017.0 |
| 20260508095625 | 9 | 34 | 8.0 | 11.3 | 0.00 | 0.00 | 0.00 | 79 | 1017.0 |
| 20260508095125 | 9 | 43 | 6.4 | 9.7 | 0.00 | 0.00 | 0.00 | 79 | 1017.0 |
| 20260508094625 | 9 | 43 | 8.0 | 11.3 | 0.00 | 0.00 | 0.00 | 79 | 1017.0 |
| 20260508093626 | 9 | 66 | 6.4 | 9.7 | 0.00 | 0.00 | 0.00 | 78 | 1016.9 |
| 20260508093126 | 9 | 67 | 9.7 | 11.3 | 0.00 | 0.00 | 0.00 | 78 | 1016.9 |
| 20260508091625 | 9 | 80 | 12.9 | 12.9 | 0.00 | 0.00 | 0.00 | 78 | 1017.1 |
| 20260508090125 | 9 | 76 | 6.4 | 14.5 | 0.00 | 0.00 | 0.00 | 79 | 1017.3 |
| 20260508085625 | 9 | 60 | 6.4 | 14.5 | 0.00 | 0.00 | 0.00 | 79 | 1017.4 |
| 20260508085124 | 9 | 19 | 8.0 | 11.3 | 0.00 | 0.00 | 0.00 | 78 | 1017.4 |
| 20260508084625 | 9 | 59 | 6.4 | 11.3 | 0.00 | 0.00 | 0.00 | 78 | 1017.6 |
| 20260508083625 | 9 | 65 | 3.2 | 12.9 | 0.00 | 0.00 | 0.00 | 78 | 1017.6 |
| 20260508083124 | 9 | 61 | 4.8 | 8.0 | 0.00 | 0.00 | 0.00 | 78 | 1017.7 |
| 20260508082625 | 9 | 45 | 4.8 | 8.0 | 0.00 | 0.00 | 0.00 | 77 | 1017.6 |
| 20260508082124 | 9 | 30 | 3.2 | 9.7 | 0.00 | 0.00 | 0.00 | 77 | 1017.7 |
| 20260508081624 | 10 | 26 | 6.4 | 9.7 | 0.00 | 0.00 | 0.00 | 76 | 1017.7 |
| 20260508081125 | 10 | 50 | 6.4 | 9.7 | 0.00 | 0.00 | 0.00 | 76 | 1017.7 |
| 20260508080625 | 10 | 61 | 3.2 | 9.7 | 0.00 | 0.00 | 0.00 | 76 | 1017.8 |
| 20260508080125 | 10 | 30 | 4.8 | 11.3 | 0.00 | 0.00 | 0.00 | 76 | 1017.7 |
| 20260508075625 | 10 | 46 | 8.0 | 11.3 | 0.00 | 0.00 | 0.00 | 75 | 1017.7 |
| 20260508075125 | 10 | 32 | 4.8 | 9.7 | 0.00 | 0.00 | 0.00 | 75 | 1017.8 |
| 20260508074624 | 10 | 64 | 4.8 | 11.3 | 0.00 | 0.00 | 0.00 | 75 | 1017.8 |
| 20260508074124 | 10 | 51 | 6.4 | 11.3 | 0.00 | 0.00 | 0.00 | 75 | 1018.0 |
| 20260508073124 | 10 | 44 | 9.7 | 9.7 | 0.00 | 0.00 | 0.00 | 75 | 1018.0 |
| 20260508072124 | 10 | 59 | 8.0 | 12.9 | 0.00 | 0.00 | 0.00 | 75 | 1018.1 |
| 20260508071624 | 10 | 38 | 6.4 | 12.9 | 0.00 | 0.00 | 0.00 | 74 | 1018.0 |
| 20260508070624 | 10 | 53 | 6.4 | 9.7 | 0.00 | 0.00 | 0.00 | 74 | 1018.0 |
| 20260508070155 | 10 | 36 | 8.0 | 11.3 | 0.00 | 0.00 | 0.00 | 74 | 1018.1 |
| 20260508065624 | 10 | 34 | 8.0 | 11.3 | 0.00 | 0.00 | 0.00 | 73 | 1018.1 |
| 20260508065124 | 10 | 46 | 6.4 | 9.7 | 0.00 | 0.00 | 0.00 | 73 | 1018.2 |
| 20260508064124 | 10 | 63 | 8.0 | 9.7 | 0.00 | 0.00 | 0.00 | 73 | 1018.3 |
| 20260508063123 | 10 | 70 | 9.7 | 11.3 | 0.00 | 0.00 | 0.00 | 72 | 1018.3 |
| 20260508062623 | 10 | 61 | 8.0 | 11.3 | 0.00 | 0.00 | 0.00 | 72 | 1018.3 |
| 20260508062123 | 11 | 29 | 8.0 | 11.3 | 0.00 | 0.00 | 0.00 | 73 | 1018.5 |
| 20260508061623 | 11 | 59 | 8.0 | 9.7 | 0.00 | 0.00 | 0.00 | 71 | 1018.5 |
| 20260508061124 | 11 | 71 | 8.0 | 9.7 | 0.00 | 0.00 | 0.00 | 72 | 1018.4 |
| 20260508060623 | 11 | 40 | 6.4 | 11.3 | 0.00 | 0.00 | 0.00 | 71 | 1018.3 |
| 20260508060153 | 11 | 69 | 6.4 | 11.3 | 0.00 | 0.00 | 0.00 | 71 | 1018.3 |
| 20260508055623 | 11 | 53 | 8.0 | 9.7 | 0.00 | 0.00 | 0.00 | 72 | 1018.3 |
| 20260508055123 | 11 | 49 | 8.0 | 9.7 | 0.00 | 0.00 | 0.00 | 71 | 1018.3 |
| 20260508054623 | 11 | 46 | 8.0 | 9.7 | 0.00 | 0.00 | 0.00 | 72 | 1018.2 |
| 20260508054123 | 11 | 36 | 6.4 | 11.3 | 0.00 | 0.00 | 0.00 | 72 | 1018.2 |
| 20260508053623 | 11 | 49 | 4.8 | 11.3 | 0.00 | 0.00 | 0.00 | 72 | 1018.3 |
| 20260508053123 | 11 | 58 | 8.0 | 9.7 | 0.00 | 0.00 | 0.00 | 73 | 1018.4 |
| 20260508052623 | 11 | 55 | 4.8 | 8.0 | 0.00 | 0.00 | 0.00 | 73 | 1018.4 |
| 20260508052122 | 11 | 60 | 4.8 | 8.0 | 0.00 | 0.00 | 0.00 | 74 | 1018.4 |
| 20260508051122 | 11 | 53 | 3.2 | 8.0 | 0.00 | 0.00 | 0.00 | 75 | 1018.6 |
| 20260508050623 | 11 | 32 | 4.8 | 6.4 | 0.00 | 0.00 | 0.00 | 76 | 1018.6 |
| 20260508050153 | 11 | 37 | 3.2 | 6.4 | 0.00 | 0.00 | 0.00 | 76 | 1018.6 |
| 20260508045623 | 11 | 249 | 3.2 | 4.8 | 0.00 | 0.00 | 0.00 | 77 | 1018.4 |
| 20260508045123 | 12 | 242 | 0.0 | 4.8 | 0.00 | 0.00 | 0.00 | 77 | 1018.4 |
| 20260508044623 | 12 | 242 | 0.0 | 0.0 | 0.00 | 0.00 | 0.00 | 77 | 1018.4 |
| 20260508044122 | 12 | 242 | 0.0 | 0.0 | 0.00 | 0.00 | 0.00 | 75 | 1018.4 |
| 20260508043652 | 12 | 242 | 0.0 | 0.0 | 0.00 | 0.00 | 0.00 | 75 | 1018.5 |
| 20260508043152 | 12 | 242 | 0.0 | 0.0 | 0.00 | 0.00 | 0.00 | 74 | 1018.4 |
| 20260508042652 | 12 | 242 | 0.0 | 0.0 | 0.00 | 0.00 | 0.00 | 72 | 1018.4 |
| 20260508042152 | 12 | 242 | 0.0 | 0.0 | 0.00 | 0.00 | 0.00 | 64 | 1018.2 |
| 20260508041652 | 12 | 242 | 0.0 | 0.0 | 0.00 | 0.00 | 0.00 | 64 | 1018.1 |
| 20260508041152 | 12 | 242 | 0.0 | 0.0 | 0.00 | 0.00 | 0.00 | 61 | 1018.0 |
| 20260508040652 | 12 | 242 | 0.0 | 0.0 | 0.00 | 0.00 | 0.00 | 65 | 1017.8 |
| 20260508040152 | 12 | 241 | 0.0 | 0.0 | 0.00 | 0.00 | 0.00 | 66 | 1017.8 |
| 20260508035652 | 12 | 241 | 0.0 | 0.0 | 0.00 | 0.00 | 0.00 | 67 | 1017.6 |
| 20260508035152 | 12 | 241 | 0.0 | 0.0 | 0.00 | 0.00 | 0.00 | 66 | 1017.5 |
| 20260508034652 | 12 | 241 | 0.0 | 0.0 | 0.00 | 0.00 | 0.00 | 68 | 1017.5 |
| 20260508034152 | 12 | 241 | 0.0 | 0.0 | 0.00 | 0.00 | 0.00 | 71 | 1017.5 |
| 20260508033651 | 12 | 240 | 0.0 | 0.0 | 0.00 | 0.00 | 0.00 | 77 | 1017.3 |
| 20260508033152 | 13 | 238 | 0.0 | 0.0 | 0.00 | 0.00 | 0.00 | 79 | 1017.4 |
| 20260508032652 | 13 | 238 | 0.0 | 0.0 | 0.00 | 0.00 | 0.00 | 80 | 1017.5 |
| 20260508032151 | 13 | 238 | 0.0 | 0.0 | 0.00 | 0.00 | 0.00 | 80 | 1017.5 |
| 20260508031651 | 14 | 238 | 0.0 | 0.0 | 0.00 | 0.00 | 0.00 | 79 | 1017.5 |
| 20260508031151 | 15 | 238 | 0.0 | 0.0 | 0.00 | 0.00 | 0.00 | 79 | 1017.8 |
| 20260508030651 | 15 | 238 | 0.0 | 0.0 | 0.00 | 0.00 | 0.00 | 79 | 1017.8 |
| 20260508030151 | 15 | 238 | 0.0 | 0.0 | 0.00 | 0.00 | 0.00 | 78 | 1017.7 |
| 20260508024651 | 16 | 234 | 0.0 | 0.0 | 0.00 | 0.00 | 0.00 | 77 | 1016.8 |
| 20260508023651 | 16 | 234 | 0.0 | 0.0 | 0.00 | 0.00 | 0.00 | 76 | 1017.1 |
| 20260508023151 | 17 | 234 | 0.0 | 0.0 | 0.00 | 0.00 | 0.00 | 75 | 1017.1 |
| 20260508022650 | 17 | 234 | 0.0 | 0.0 | 0.00 | 0.00 | 0.00 | 74 | 1017.2 |
| 20260508022150 | 17 | 234 | 0.0 | 0.0 | 0.00 | 0.00 | 0.00 | 73 | 1017.1 |
| 20260508021651 | 18 | 234 | 0.0 | 1.6 | 0.00 | 0.00 | 0.00 | 71 | 1017.1 |
| 20260508021150 | 18 | 234 | 0.0 | 8.0 | 0.00 | 0.00 | 0.00 | 72 | 1017.1 |
| 20260508020650 | 18 | 235 | 0.0 | 8.0 | 0.00 | 0.00 | 0.00 | 71 | 1017.4 |
| 20260508020150 | 18 | 245 | 3.2 | 4.8 | 0.00 | 0.00 | 0.00 | 70 | 1017.3 |
| 20260508015650 | 19 | 245 | 0.0 | 1.6 | 0.00 | 0.00 | 0.00 | 70 | 1015.7 |
| 20260508015150 | 19 | 245 | 0.0 | 3.2 | 0.00 | 0.00 | 0.00 | 69 | 1015.7 |
| 20260508014650 | 19 | 245 | 0.0 | 8.0 | 0.00 | 0.00 | 0.00 | 69 | 1015.7 |
| 20260508014150 | 20 | 245 | 1.6 | 8.0 | 0.00 | 0.00 | 0.00 | 68 | 1016.1 |
| 20260508013650 | 20 | 247 | 8.0 | 9.7 | 0.00 | 0.00 | 0.00 | 68 | 1016.1 |
| 20260508013150 | 20 | 234 | 3.2 | 11.3 | 0.00 | 0.00 | 0.00 | 67 | 1015.9 |
| 20260508012650 | 20 | 206 | 4.8 | 11.3 | 0.00 | 0.00 | 0.00 | 67 | 1015.9 |
| 20260508012150 | 20 | 242 | 6.4 | 11.3 | 0.00 | 0.00 | 0.00 | 66 | 1016.0 |
| 20260508011650 | 20 | 237 | 8.0 | 14.5 | 0.00 | 0.00 | 0.00 | 66 | 1016.0 |
| 20260508011150 | 20 | 215 | 11.3 | 14.5 | 0.00 | 0.00 | 0.00 | 65 | 1016.0 |
| 20260508010650 | 21 | 260 | 4.8 | 16.1 | 0.00 | 0.00 | 0.00 | 65 | 1016.2 |
| 20260508010150 | 21 | 255 | 12.9 | 16.1 | 0.00 | 0.00 | 0.00 | 64 | 1016.3 |
| 20260508005650 | 21 | 262 | 9.7 | 16.1 | 0.00 | 0.00 | 0.00 | 63 | 1015.9 |
| 20260508005149 | 21 | 220 | 6.4 | 16.1 | 0.00 | 0.00 | 0.00 | 62 | 1015.8 |
| 20260508004650 | 21 | 244 | 12.9 | 16.1 | 0.00 | 0.00 | 0.00 | 62 | 1015.7 |
| 20260508004150 | 22 | 229 | 6.4 | 16.1 | 0.00 | 0.00 | 0.00 | 60 | 1015.7 |
| 20260508003149 | 22 | 238 | 3.2 | 17.7 | 0.00 | 0.00 | 0.00 | 60 | 1015.7 |
| 20260508002649 | 22 | 246 | 3.2 | 17.7 | 0.00 | 0.00 | 0.00 | 59 | 1016.0 |
| 20260508001649 | 22 | 211 | 14.5 | 16.1 | 0.00 | 0.00 | 0.00 | 58 | 1015.9 |
| 20260508001150 | 22 | 246 | 3.2 | 16.1 | 0.00 | 0.00 | 0.00 | 58 | 1015.9 |
| 20260508000649 | 23 | 235 | 8.0 | 16.1 | 0.00 | 0.00 | 0.00 | 58 | 1015.9 |
| 20260508000149 | 23 | 267 | 3.2 | 16.1 | 0.00 | 0.00 | 0.00 | 57 | 1015.9 |
| 20260507235649 | 23 | 236 | 16.1 | 16.1 | 0.00 | 0.00 | 0.00 | 56 | 1016.1 |
| 20260507235149 | 24 | 235 | 9.7 | 16.1 | 0.00 | 0.00 | 0.00 | 55 | 1016.1 |
| 20260507234649 | 24 | 240 | 4.8 | 16.1 | 0.00 | 0.00 | 0.00 | 54 | 1016.0 |
| 20260507234149 | 24 | 238 | 0.0 | 17.7 | 0.00 | 0.00 | 0.00 | 55 | 1016.0 |
| 20260507233149 | 25 | 198 | 16.1 | 16.1 | 0.00 | 0.00 | 0.00 | 54 | 1016.4 |
| 20260507232149 | 25 | 235 | 8.0 | 19.3 | 0.00 | 0.00 | 0.00 | 52 | 1016.4 |
| 20260507230149 | 25 | 234 | 4.8 | 19.3 | 0.00 | 0.00 | 0.00 | 52 | 1016.6 |
| 20260507225649 | 25 | 217 | 6.4 | 22.5 | 0.00 | 0.00 | 0.00 | 52 | 1016.5 |
| 20260507225148 | 25 | 217 | 8.0 | 22.5 | 0.00 | 0.00 | 0.00 | 52 | 1016.2 |
| 20260507224648 | 25 | 215 | 4.8 | 17.7 | 0.00 | 0.00 | 0.00 | 51 | 1016.3 |
| 20260507224148 | 25 | 225 | 4.8 | 19.3 | 0.00 | 0.00 | 0.00 | 48 | 1016.5 |
| 20260507223649 | 25 | 213 | 4.8 | 19.3 | 0.00 | 0.00 | 0.00 | 49 | 1016.5 |
| 20260507222648 | 25 | 261 | 14.5 | 19.3 | 0.00 | 0.00 | 0.00 | 49 | 1016.5 |
| 20260507222148 | 25 | 325 | 0.0 | 17.7 | 0.00 | 0.00 | 0.00 | 47 | 1016.5 |
| 20260507221148 | 25 | 215 | 1.6 | 17.7 | 0.00 | 0.00 | 0.00 | 47 | 1016.5 |
| 20260507220148 | 25 | 226 | 3.2 | 14.5 | 0.00 | 0.00 | 0.00 | 46 | 1016.7 |
| 20260507215648 | 25 | 269 | 1.6 | 19.3 | 0.00 | 0.00 | 0.00 | 44 | 1016.7 |
| 20260507215148 | 26 | 245 | 8.0 | 19.3 | 0.00 | 0.00 | 0.00 | 46 | 1016.9 |
| 20260507214648 | 26 | 240 | 6.4 | 17.7 | 0.00 | 0.00 | 0.00 | 44 | 1016.9 |
| 20260507214147 | 26 | 220 | 9.7 | 19.3 | 0.00 | 0.00 | 0.00 | 45 | 1017.1 |
| 20260507213648 | 26 | 263 | 9.7 | 19.3 | 0.00 | 0.00 | 0.00 | 45 | 1017.2 |